Theta_e
303 303 304 304 304 304 304 304 304 303 304 304 306 307 307 308 308 303 297 299 297 293 293 295 297 291 292 288 284 286 287 289 289 282 285 287 286 287 286 287 287 288 287 288 289 286 288 302 304 298 300 307 307 305
302 303 303 303 303 303 304 304 304 304 305 304 305 306 307 307 308 306 295 299 302 297 294 298 299 299 298 296 290 290 292 291 291 288 289 290 288 289 288 284 291 287 291 288 291 293 296 302 300 300 300 301 309 307
301 303 302 302 303 303 303 304 304 305 305 305 306 307 308 308 307 305 300 296 299 295 291 290 293 300 302 300 298 289 293 296 294 296 292 291 286 290 285 286 287 291 295 291 290 299 295 298 300 301 301 300 306 310
302 302 302 302 302 303 303 303 304 305 305 305 306 307 308 307 307 305 300 296 299 296 288 288 298 297 303 301 298 298 295 295 295 293 292 291 287 293 288 288 288 291 293 291 292 295 295 299 299 300 301 302 302 309
301 301 302 302 302 303 303 303 304 304 305 306 307 307 307 307 305 302 298 298 299 292 284 287 294 297 301 300 299 299 295 292 291 289 288 287 291 292 291 292 290 295 291 289 288 295 295 295 299 302 300 300 302 303
300 301 301 302 302 302 303 303 304 305 306 307 306 306 306 307 306 296 291 299 301 298 288 282 292 293 297 298 297 296 296 295 293 290 289 290 292 290 286 285 292 297 298 298 295 300 297 298 300 302 300 301 303 303
300 301 301 302 302 302 302 303 304 305 306 306 306 307 306 307 297 293 292 297 301 296 291 288 285 295 299 297 295 293 294 292 291 288 287 289 290 291 288 285 292 295 297 300 301 300 296 298 297 301 303 303 303 304
300 300 301 301 301 302 302 303 304 305 305 306 306 306 306 306 302 295 298 303 300 293 296 287 284 290 298 292 291 295 290 290 289 288 289 287 289 289 284 290 293 295 297 297 300 300 299 301 300 301 303 303 302 304
300 300 301 301 301 302 302 303 304 305 305 305 307 306 301 296 293 297 309 305 298 294 285 287 284 284 298 293 293 291 293 284 289 285 287 288 286 284 289 292 295 297 297 295 297 299 299 298 299 300 300 303 303 303
300 300 301 301 301 302 302 303 304 305 305 307 302 298 290 297 308 306 298 293 292 292 292 287 292 287 295 294 291 290 292 289 282 286 291 285 284 291 294 294 295 296 298 299 295 294 296 297 298 299 301 303 305 306
300 300 300 301 301 302 302 303 304 303 304 297 293 292 297 305 298 292 287 287 289 289 294 293 294 291 297 290 289 290 286 287 282 285 287 285 285 291 294 293 294 297 300 301 301 301 299 298 298 299 301 304 305 307
300 300 300 300 301 301 303 304 303 297 295 296 298 300 297 295 290 287 281 287 286 286 293 291 294 295 295 295 288 288 284 285 281 290 286 285 290 294 294 294 295 296 297 298 300 302 300 300 300 300 302 306 307 306
300 300 300 300 301 302 303 302 302 303 302 301 297 294 288 286 282 284 283 283 284 291 293 292 289 292 293 292 288 286 282 279 289 285 284 287 292 293 294 295 297 297 298 298 299 302 306 304 302 301 300 303 306 305
299 300 300 300 300 302 301 301 302 301 298 293 288 280 282 280 283 287 286 286 291 293 292 291 289 287 294 288 288 283 285 287 280 277 282 288 292 294 296 297 297 297 298 298 299 300 302 304 307 307 302 304 305 304
299 300 300 300 302 300 300 301 301 300 297 292 287 279 281 289 290 292 293 290 291 292 290 288 288 289 283 285 287 281 279 279 283 282 286 292 294 295 297 297 298 297 299 298 300 300 301 302 304 305 306 307 305 305
299 299 299 302 299 299 300 299 301 303 297 294 289 286 290 288 289 290 290 289 292 291 292 290 284 283 280 284 284 282 281 279 282 286 290 294 295 297 299 300 300 300 300 300 300 301 302 301 301 304 306 307 308 310
298 292 299 299 298 299 300 297 302 300 293 290 287 292 290 289 289 289 290 291 293 290 285 288 282 281 285 277 281 286 284 286 288 290 293 295 296 298 300 301 301 301 301 301 301 301 302 303 303 304 304 306 307 306
292 293 297 298 298 297 299 302 298 294 290 290 287 290 291 291 289 290 291 292 293 290 290 287 289 282 281 274 274 284 288 291 291 293 294 296 297 299 301 300 302 302 302 302 303 303 304 304 303 303 304 306 307 308
294 296 298 299 298 293 293 299 296 289 291 293 293 292 291 291 293 293 293 294 294 294 292 290 286 282 283 288 288 291 294 296 295 294 295 297 299 298 300 301 301 301 301 302 302 302 303 305 305 306 306 308 308 309
298 299 298 298 299 294 295 294 299 290 286 291 293 291 290 290 292 293 292 292 293 290 289 285 287 289 290 293 295 295 296 299 297 293 295 297 298 298 297 298 298 301 301 302 303 298 303 304 306 306 306 306 308 308
295 297 298 297 296 295 296 295 293 290 292 292 294 292 290 291 291 290 291 293 290 285 283 290 291 294 295 296 297 298 299 298 297 298 297 295 296 296 297 298 298 299 298 301 301 301 300 302 304 306 307 306 306 307
293 298 293 297 293 294 293 298 293 293 290 291 290 291 286 282 285 290 292 289 290 291 291 291 293 295 295 297 297 298 298 298 297 299 296 296 297 294 293 295 297 296 296 299 301 301 302 303 302 305 305 306 304 303
296 295 292 294 291 289 288 295 290 290 287 288 287 286 285 284 289 292 286 289 291 294 294 294 296 296 295 297 297 297 297 296 295 295 297 298 297 296 296 295 296 296 296 297 299 300 302 297 302 303 305 304 303 303
298 292 289 286 287 283 289 286 285 285 284 282 282 284 285 287 289 284 283 286 290 294 293 295 296 294 296 297 294 294 295 297 298 297 296 295 294 295 298 296 295 296 296 297 298 299 301 303 300 303 302 302 301 302
285 281 281 278 284 287 284 284 284 282 284 284 284 283 283 286 280 282 285 287 289 292 293 293 292 291 292 293 294 294 296 296 296 296 296 296 296 297 295 295 296 295 296 296 298 298 298 300 301 302 300 299 300 298
279 280 281 282 281 283 283 282 283 284 284 283 284 286 285 282 282 282 288 288 289 292 293 293 292 291 291 294 293 292 293 294 297 294 295 295 294 294 293 292 292 293 296 297 298 298 298 298 297 297 297 297 292 297
277 276 281 289 283 287 283 286 285 283 284 283 282 283 281 281 282 287 290 292 292 294 295 293 292 291 291 290 293 293 293 294 295 296 297 297 297 295 294 292 292 294 296 298 299 299 298 297 295 294 293 294 294 294
281 281 279 278 283 282 282 280 283 284 287 289 288 284 283 284 285 289 292 295 295 296 294 293 292 290 288 290 292 293 293 293 297 297 296 296 296 295 295 296 296 290 294 293 296 296 296 295 294 293 292 291 291 292
282 282 284 280 281 280 281 283 283 287 292 291 285 284 287 291 292 292 293 293 293 291 289 288 288 292 297 296 295 293 293 292 292 291 290 287 288 294 296 295 297 297 294 291 285 288 290 291 291 291 291 290 290 290
280 286 281 282 281 280 284 287 286 289 290 290 292 292 291 293 293 296 294 294 293 291 289 289 290 292 293 292 291 291 292 290 289 289 287 287 289 290 290 293 294 295 294 293 291 289 286 289 289 290 288 287 286 285
285 285 282 282 283 286 288 290 290 290 289 291 293 291 290 292 293 294 294 293 293 293 293 293 293 292 292 291 290 289 286 286 286 286 287 289 289 290 291 292 293 291 291 290 289 288 287 287 286 285 284 283 283 283
286 284 283 281 282 288 289 287 286 288 288 287 286 288 287 287 286 289 292 293 291 292 288 291 290 289 291 288 286 285 283 283 283 284 285 285 286 287 289 292 292 291 289 288 287 285 285 284 284 283 283 282 282 282
284 286 286 284 280 281 286 286 283 283 284 280 285 287 286 286 284 290 292 294 293 291 291 291 292 292 290 288 285 284 283 283 282 281 281 280 280 282 287 290 290 289 288 286 285 283 283 283 283 282 282 281 280 280
Wind_Speed
21 21 22 22 23 23 24 22 22 23 23 22 22 21 19 17 13 4 5 5 3 4 11 7 4 9 7 3 3 5 6 3 3 4 1 3 3 4 3 4 5 5 5 3 4 1 5 25 8 10 8 17 15 8
22 22 23 23 24 23 23 23 22 21 21 22 23 21 19 18 12 8 3 2 2 5 9 8 15 18 14 15 3 2 2 3 2 3 2 3 2 3 2 3 1 2 5 4 5 1 7 7 8 5 9 12 17 18
24 23 23 24 24 24 24 24 23 23 22 22 22 21 19 17 14 5 5 3 3 3 6 3 6 7 6 12 6 3 3 4 4 7 3 2 2 1 1 3 4 4 7 3 7 2 16 9 10 13 16 19 19 20
23 24 24 25 25 25 25 25 24 24 23 22 21 19 16 14 10 7 4 2 2 3 4 8 5 8 6 7 9 9 3 4 3 1 3 3 3 5 2 2 3 2 5 7 6 9 19 0 15 19 21 21 24 26
23 24 25 25 26 26 26 26 25 25 23 21 21 19 16 14 9 5 4 4 4 3 4 7 12 7 5 9 11 10 7 4 1 4 2 3 3 2 1 5 7 5 4 3 4 12 7 15 15 17 19 25 24 24
22 24 25 26 27 27 26 27 27 25 24 21 21 19 14 11 5 2 4 3 4 4 1 5 5 6 4 7 9 9 10 7 3 4 3 4 3 3 1 2 1 7 8 9 5 8 13 17 14 12 13 20 22 22
23 24 25 26 27 27 28 28 29 27 26 22 18 15 10 6 2 3 5 4 1 3 1 5 6 6 4 2 3 3 2 4 4 3 3 3 4 1 4 3 3 5 5 8 9 12 13 5 9 13 12 15 20 21
23 24 24 25 26 27 28 29 30 30 29 26 18 13 8 4 2 4 4 8 5 2 2 3 7 6 6 4 4 2 3 3 3 3 4 2 2 1 4 6 6 6 8 7 8 9 12 14 11 12 11 13 18 17
23 24 24 25 26 26 27 28 29 29 31 29 17 3 3 3 0 4 4 6 1 3 2 2 3 4 6 3 2 5 3 3 3 1 3 4 5 3 9 13 16 15 11 9 6 11 9 11 11 8 8 9 12 15
23 24 24 25 25 26 27 27 27 29 31 21 5 4 4 3 6 7 4 3 3 2 1 3 1 3 4 2 2 4 3 3 4 1 4 2 3 4 13 13 13 15 17 15 10 7 10 6 8 6 7 10 8 9
23 24 24 25 26 25 26 25 25 26 9 5 5 3 5 12 3 3 3 2 3 3 3 4 3 7 3 2 2 3 2 3 4 4 4 2 2 8 16 17 14 14 14 15 12 13 7 7 8 8 9 9 6 7
23 24 25 24 26 25 23 22 22 7 2 2 4 4 4 4 4 5 3 4 3 4 4 4 6 1 1 3 3 3 3 3 3 7 4 4 4 12 14 17 16 15 15 15 14 16 8 8 7 10 11 7 4 3
23 25 26 25 25 24 21 22 21 18 10 1 1 2 4 4 8 4 4 5 3 3 5 6 5 2 2 3 2 1 4 3 5 2 3 3 7 12 13 12 12 13 11 13 15 14 13 8 13 14 10 6 7 5
21 26 27 26 25 18 23 25 22 11 3 1 2 6 4 2 3 5 5 5 6 5 7 4 0 2 1 2 1 4 2 2 5 4 3 5 13 14 16 12 11 12 11 13 14 10 11 11 9 9 13 11 8 7
20 25 29 20 15 26 27 28 25 2 2 1 4 3 4 5 5 6 7 4 5 4 4 4 3 3 3 3 3 4 7 4 3 3 3 9 15 13 12 11 11 11 9 12 12 10 11 8 11 7 4 3 4 7
20 22 6 13 23 28 30 20 3 3 2 2 3 1 4 1 5 4 4 4 4 4 2 4 3 4 3 2 5 3 6 3 5 4 6 8 11 13 11 10 11 11 11 10 8 10 11 11 10 9 7 6 5 4
14 6 12 22 27 30 22 4 2 4 4 3 4 4 4 4 6 5 3 5 2 3 1 3 3 4 1 3 1 2 3 5 6 8 7 10 9 11 9 8 9 10 11 10 10 10 11 13 9 9 10 7 8 7
5 6 22 26 20 12 3 3 2 2 5 4 1 5 3 4 4 4 4 3 2 2 1 2 3 3 2 3 5 5 4 6 7 8 8 9 7 7 6 7 9 10 11 11 12 13 10 7 8 8 7 7 6 7
11 13 25 28 10 5 4 5 3 3 6 3 4 3 3 4 5 4 3 3 2 3 3 2 2 3 4 4 3 3 4 5 8 7 4 5 3 4 5 6 7 9 11 11 11 10 10 7 3 3 4 2 1 3
22 22 23 22 6 3 5 6 1 3 4 5 2 4 3 4 4 3 1 2 1 2 1 1 4 4 4 2 4 4 2 3 4 5 7 9 1 4 4 3 4 7 9 11 10 10 10 10 9 7 5 3 3 5
8 4 8 1 3 5 4 4 5 5 4 3 4 3 4 2 3 3 3 1 2 3 2 4 3 3 5 4 2 3 1 1 3 1 4 4 5 3 5 5 4 3 4 6 8 9 11 10 10 8 7 9 8 7
5 7 3 4 4 4 5 6 5 3 1 4 3 3 2 2 4 5 2 2 4 5 5 3 2 4 4 4 3 3 5 5 2 2 5 3 5 5 5 5 7 8 6 5 5 7 8 8 9 10 9 7 7 10
7 3 4 4 4 4 8 1 3 4 4 4 2 2 3 2 4 1 1 4 5 4 5 3 3 5 5 4 3 2 3 4 2 1 3 3 2 3 4 5 5 7 8 8 6 5 6 9 11 8 9 10 10 11
6 4 5 5 6 6 3 4 3 2 2 2 3 4 4 4 1 1 5 5 4 2 3 4 3 3 0 0 1 2 4 2 3 3 0 2 2 3 4 3 4 5 5 5 4 5 7 7 10 11 10 9 8 8
3 8 4 7 4 4 4 4 4 1 5 4 5 4 4 2 1 3 4 4 2 3 4 3 3 3 4 3 1 3 4 2 2 2 4 2 2 2 4 4 5 4 5 5 6 6 6 7 7 9 10 11 10 12
7 6 9 7 4 5 5 4 5 6 4 4 6 4 2 3 3 5 4 3 3 4 4 5 5 3 2 4 3 2 3 1 3 3 4 4 4 3 3 3 3 5 5 4 4 6 7 7 9 11 11 11 10 12
7 7 5 5 3 3 2 3 3 0 4 6 4 4 3 4 5 4 3 2 3 3 4 3 5 4 4 2 3 2 2 4 3 4 3 3 4 3 1 3 3 2 4 5 5 6 6 6 7 8 10 10 11 10
8 4 7 5 4 2 3 2 4 4 5 4 3 3 6 8 5 3 4 3 4 3 2 2 1 3 2 2 4 5 5 5 6 4 3 4 4 4 6 5 4 8 7 7 7 7 8 7 7 8 10 10 9 9
5 4 4 4 4 4 6 7 6 5 4 1 0 3 4 3 2 2 2 2 2 4 4 3 2 6 7 6 5 4 4 5 8 8 8 5 5 5 5 7 5 6 6 9 10 10 12 9 8 8 10 9 8 8
5 6 4 4 5 8 6 8 5 5 4 7 6 4 8 10 6 3 2 3 4 4 4 2 4 7 6 8 6 6 5 4 5 5 4 2 1 3 4 4 5 4 4 6 7 7 8 8 8 8 8 7 6 7
4 7 4 5 6 5 9 8 7 7 6 6 5 4 7 7 2 5 8 6 2 3 4 5 6 5 6 6 6 7 5 5 6 8 5 3 4 4 4 4 3 4 5 7 7 8 8 7 6 7 8 9 10 9
6 8 5 5 6 7 4 4 5 5 4 3 4 6 4 3 3 3 6 4 4 8 6 7 8 7 7 8 7 7 10 5 4 4 5 3 3 4 5 3 7 6 7 8 7 7 8 7 6 6 6 8 9 9
6 7 6 3 2 3 5 4 3 3 2 3 4 4 4 5 4 2 3 6 4 6 5 6 7 7 7 8 9 7 7 6 6 6 7 7 7 6 5 5 6 7 9 8 7 6 8 8 6 7 9 9 9 9
Wind_Direction
333 331 329 330 329 330 328 329 334 334 332 333 328 328 326 321 321 330 263 216 196 243 281 251 156 276 283 222 227 295 339 343 343 336 215 174 166 171 183 229 281 310 300 3 318 169 65 350 350 59 302 314 330 229
332 332 330 330 328 327 327 325 327 324 322 329 323 325 322 318 310 324 263 279 222 244 267 276 268 255 234 229 177 270 305 273 220 300 332 305 190 147 150 242 122 213 6 304 28 226 344 327 55 353 307 339 2 355
331 330 330 329 327 327 327 326 326 321 319 324 321 319 317 312 306 296 278 256 286 265 296 341 265 292 192 206 178 190 253 227 197 200 249 238 44 323 52 192 55 297 2 296 325 241 341 306 354 338 358 359 349 358
328 328 329 328 327 327 327 326 323 320 319 327 324 325 328 321 306 292 260 234 269 275 289 277 301 303 266 154 187 205 245 329 303 282 248 264 199 188 182 59 354 243 314 317 289 308 333 97 352 347 346 350 1 358
326 326 327 327 326 327 328 325 321 319 320 327 332 334 332 331 318 288 217 235 196 156 262 284 311 267 244 175 198 216 223 224 330 312 325 241 250 208 187 172 197 153 202 67 288 297 260 286 326 339 348 355 355 348
325 326 327 327 327 327 328 324 320 319 321 326 332 331 329 329 333 37 356 301 190 157 359 311 290 282 268 217 216 226 230 223 210 181 235 271 266 87 337 286 220 195 181 157 252 269 260 286 306 332 342 351 347 338
322 324 326 327 328 328 327 324 320 320 322 325 324 318 313 323 104 165 200 238 136 73 309 300 304 271 283 3 313 339 332 214 169 191 199 214 268 264 218 179 253 290 255 191 205 263 301 298 308 326 342 345 338 320
318 321 324 326 327 329 327 325 320 323 323 325 320 300 282 251 245 309 259 237 142 132 196 280 273 329 354 327 317 31 336 348 338 206 317 193 291 356 326 300 331 274 229 230 202 222 261 289 306 318 334 359 325 325
315 318 322 325 327 328 327 324 322 325 323 323 327 12 80 65 260 240 149 116 124 138 224 232 259 297 330 295 317 340 353 346 288 75 278 58 333 318 8 359 354 349 327 273 244 216 223 259 287 318 333 321 305 319
313 316 320 322 326 328 327 325 325 326 322 318 39 27 343 230 292 104 26 30 6 305 278 257 0 279 278 320 346 348 348 337 335 207 274 155 119 315 358 335 327 324 320 334 331 197 200 258 295 269 264 262 270 311
312 315 318 321 322 326 324 323 328 332 351 15 7 313 285 302 61 30 333 62 309 330 255 252 252 315 356 321 359 16 346 327 337 322 344 337 79 360 341 330 319 313 321 331 335 294 227 206 282 282 268 262 280 315
311 313 316 319 320 321 319 320 333 344 275 261 301 287 299 357 26 35 317 329 30 265 281 246 291 216 59 47 38 7 344 338 297 348 327 317 324 341 335 326 312 316 324 331 329 325 217 209 240 265 257 250 240 251
311 313 314 317 319 315 318 324 330 317 298 143 187 306 52 320 40 29 318 294 273 249 256 298 314 135 106 62 72 342 358 284 317 307 300 268 305 313 314 310 313 308 319 327 322 330 347 286 241 244 254 282 316 279
312 312 311 315 310 311 328 326 328 335 301 202 109 327 126 308 228 207 219 232 253 243 290 308 32 97 78 42 352 342 297 331 346 339 311 305 306 313 315 308 307 315 327 333 315 312 315 313 315 317 232 223 250 243
315 312 306 300 311 335 324 322 319 234 165 250 92 258 234 231 252 249 241 258 262 258 329 11 24 74 19 37 8 1 0 9 340 294 269 299 304 311 306 307 305 300 312 320 317 311 297 303 298 290 297 323 304 268
321 313 263 326 334 324 318 318 296 156 254 205 197 261 253 12 283 304 290 280 274 308 14 49 38 43 1 86 8 8 335 295 273 235 256 288 297 299 317 313 315 315 303 295 297 304 299 280 273 275 265 251 219 147
320 242 290 324 321 317 309 266 266 230 205 226 260 215 202 229 230 242 233 260 287 32 305 88 48 222 33 48 302 203 238 229 242 275 281 287 290 293 300 301 316 328 317 314 312 296 278 264 255 269 255 225 214 195
241 281 306 306 324 308 278 243 250 217 243 248 160 250 223 222 231 269 247 249 60 297 117 217 139 59 191 190 267 239 244 260 260 264 268 281 299 308 325 324 336 334 336 329 320 332 320 279 256 261 258 255 221 214
281 291 292 299 298 303 298 279 148 231 236 238 246 253 226 250 248 241 230 256 224 203 116 57 143 197 232 213 234 313 325 322 314 298 296 287 310 327 321 327 322 352 345 344 339 337 326 348 1 342 304 317 237 206
291 287 287 287 223 232 266 266 167 190 244 233 223 258 211 228 250 248 246 229 199 80 47 196 216 220 191 202 197 213 226 301 315 316 354 319 285 281 298 301 318 338 360 357 350 350 357 4 359 357 357 11 27 44
298 275 307 283 225 222 259 260 260 210 223 206 223 186 249 311 293 261 237 189 82 188 228 225 224 176 182 209 212 320 253 225 215 143 292 308 339 285 299 314 327 321 328 353 6 0 9 6 351 7 16 53 38 32
255 303 300 248 236 231 240 226 218 263 328 236 269 187 220 256 267 257 220 143 207 219 193 195 205 165 178 208 222 232 249 298 279 211 261 37 14 350 347 344 6 359 350 343 342 9 3 359 358 2 12 38 40 50
286 236 214 251 261 241 254 57 208 212 220 255 51 175 270 250 223 85 248 224 239 218 192 161 175 149 160 189 142 279 289 292 42 353 4 13 337 339 7 7 359 7 355 353 354 352 4 7 17 26 50 38 32 37
235 247 242 235 205 257 295 260 236 241 283 28 137 228 250 225 254 73 244 224 237 214 151 171 165 136 41 301 80 283 282 250 297 340 352 126 14 322 14 11 9 359 348 316 354 19 18 27 40 28 35 40 52 61
198 245 168 252 270 254 231 259 241 93 234 212 196 245 263 85 148 246 248 260 200 210 192 168 128 129 165 220 234 253 306 196 248 305 324 146 166 341 355 5 7 342 338 1 7 14 24 29 35 56 43 35 46 53
219 242 192 210 236 190 221 224 218 225 210 201 236 223 122 151 185 234 237 216 199 171 180 185 179 178 175 202 196 221 255 224 165 92 6 36 25 114 111 79 20 333 346 357 25 37 26 31 40 47 46 39 36 54
235 250 240 235 223 237 328 330 350 10 235 229 213 181 143 213 234 242 245 309 163 168 173 172 169 160 177 204 208 229 77 61 82 140 156 63 33 25 72 95 96 272 336 19 31 42 56 49 44 51 61 50 40 47
228 250 206 223 223 185 222 208 161 231 234 235 322 201 197 191 218 243 204 188 143 136 127 80 331 197 170 148 101 108 55 54 83 63 35 31 8 11 7 7 76 84 60 30 42 41 53 55 64 60 63 63 55 48
223 226 180 254 198 221 213 199 217 221 215 226 174 234 247 199 226 214 288 269 199 154 175 150 165 101 93 86 71 61 87 86 92 85 65 12 348 352 7 15 26 86 91 81 55 60 60 56 55 61 71 65 57 52
240 183 201 213 202 214 218 196 230 237 223 236 228 278 304 292 297 261 216 108 62 329 297 145 147 133 137 120 109 71 30 60 83 113 115 134 199 298 333 16 10 49 71 87 79 66 51 57 50 54 59 55 51 51
216 176 214 209 235 227 229 224 240 247 244 236 206 206 249 266 32 15 36 12 135 91 111 89 62 41 90 105 118 116 95 22 42 45 46 45 29 7 347 333 55 87 72 79 80 76 75 66 61 64 64 63 61 64
192 204 206 230 249 244 231 211 214 220 231 200 213 199 212 107 103 19 349 67 49 71 61 81 86 73 84 87 62 63 82 86 59 39 49 33 11 351 332 29 94 94 94 88 82 79 72 70 72 75 82 81 76 73
206 218 221 235 290 262 239 180 218 232 214 214 246 220 206 143 119 131 61 357 97 123 107 93 89 83 86 90 108 112 104 99 90 70 59 47 38 26 29 61 85 89 92 92 89 93 90 81 72 76 78 75 77 73